GW1771 Weather Reports


time (UTC)temp
F
wind
direction
speed
knots
gust
knots
rain 1hr
in
rain 24hr
in
rain mn
in
humidity
%
barometer
mb
20260504222021 75 315 2.6 6.1 0.00 0.00 0.00 28 1000.7
20260504221518 75 344 1.7 4.3 0.00 0.00 0.00 29 1000.3
20260504221015 76 18 6.1 9.6 0.00 0.00 0.00 27 1000.3
20260504220512 76 327 0.9 0.9 0.00 0.00 0.00 29 1000.5
20260504220009 77 304 2.6 7.0 0.00 0.00 0.00 29 1000.3
20260504215505 77 356 1.7 1.7 0.00 0.00 0.00 28 1000.3
20260504215003 77 250 4.3 7.0 0.00 0.00 0.00 28 1000.2
20260504214458 77 12 1.7 2.6 0.00 0.00 0.00 30 1000.2
20260504213955 77 338 1.7 2.6 0.00 0.00 0.00 29 1000.3
20260504213451 77 333 1.7 1.7 0.00 0.00 0.00 29 1000.1
20260504212949 77 56 1.7 2.6 0.00 0.00 0.00 31 1000.0
20260504212444 78 323 0.9 0.9 0.00 0.00 0.00 31 1000.5
20260504211942 78 352 1.7 1.7 0.00 0.00 0.00 30 1000.2
20260504211438 78 10 0.9 1.7 0.00 0.00 0.00 32 1000.0
20260504210936 78 234 0.9 2.6 0.00 0.00 0.00 31 1000.0
20260504210433 78 295 1.7 1.7 0.00 0.00 0.00 32 999.9
20260504205930 78 314 0.9 1.7 0.00 0.00 0.00 31 1000.0
20260504205427 78 335 4.3 6.1 0.00 0.00 0.00 31 999.9
20260504204925 78 351 0.9 1.7 0.00 0.00 0.00 31 999.8
20260504204423 78 4 0.0 0.9 0.00 0.00 0.00 34 999.9
20260504203922 78 357 0.9 0.9 0.00 0.00 0.00 31 999.9
20260504203420 78 42 0.9 1.7 0.00 0.00 0.00 32 999.9
20260504202915 79 57 2.6 5.2 0.00 0.00 0.00 32 1000.0
20260504202412 79 339 0.9 1.7 0.00 0.00 0.00 34 999.8
20260504201909 80 330 1.7 6.1 0.00 0.00 0.00 34 1000.0
20260504201406 80 262 3.5 5.2 0.00 0.00 0.00 33 1000.0
20260504200903 81 289 0.9 0.9 0.00 0.00 0.00 35 999.7
20260504200400 81 328 0.0 0.9 0.00 0.00 0.00 34 999.7
20260504195857 80 105 0.0 0.0 0.00 0.00 0.00 34 999.8
20260504195352 80 7 0.0 0.0 0.00 0.00 0.00 33 999.9
20260504194849 80 73 0.0 0.0 0.00 0.00 0.00 32 999.8
20260504194345 82 18 2.6 2.6 0.00 0.00 0.00 32 999.9
20260504193841 81 351 0.9 0.9 0.00 0.00 0.00 35 999.7
20260504193339 81 343 1.7 1.7 0.00 0.00 0.00 32 999.5
20260504192838 81 304 0.9 1.7 0.00 0.00 0.00 32 999.8
20260504192335 82 305 6.1 8.7 0.00 0.00 0.00 31 999.7
20260504191833 82 163 1.7 2.6 0.00 0.00 0.00 31 999.3
20260504191330 82 326 0.9 2.6 0.00 0.00 0.00 31 999.7
20260504190826 82 203 1.7 2.6 0.00 0.00 0.00 33 999.5
20260504190322 82 328 1.7 1.7 0.00 0.00 0.00 31 999.3
20260504185819 82 287 2.6 4.3 0.00 0.00 0.00 28 999.4
20260504185316 82 16 6.1 7.8 0.00 0.00 0.00 30 999.3
20260504184812 82 324 2.6 4.3 0.00 0.00 0.00 29 999.4
20260504184308 83 354 4.3 8.7 0.00 0.00 0.00 29 999.2
20260504183803 83 216 0.9 0.9 0.00 0.00 0.00 30 999.4
20260504183301 83 350 0.0 0.9 0.00 0.00 0.00 32 999.2
20260504182759 83 27 0.9 1.7 0.00 0.00 0.00 28 999.0
20260504182256 83 301 0.0 0.9 0.00 0.00 0.00 30 999.3
20260504181753 83 288 0.9 1.7 0.00 0.00 0.00 32 998.9
20260504181250 82 13 0.9 1.7 0.00 0.00 0.00 30 999.3
20260504180749 82 13 0.0 0.0 0.00 0.00 0.00 30 999.2
20260504180248 81 318 2.6 5.2 0.00 0.00 0.00 31 999.4
20260504175745 81 27 3.5 5.2 0.00 0.00 0.00 28 999.6
20260504175242 81 340 1.7 1.7 0.00 0.00 0.00 31 999.5
20260504174739 81 312 0.9 1.7 0.00 0.00 0.00 32 999.6
20260504174237 80 269 2.6 4.3 0.00 0.00 0.00 29 999.7
20260504173733 80 318 1.7 1.7 0.00 0.00 0.00 30 999.6
20260504173231 80 335 0.9 1.7 0.00 0.00 0.00 32 999.7
20260504172727 80 309 1.7 1.7 0.00 0.00 0.00 33 999.5
20260504172224 79 7 0.0 0.9 0.00 0.00 0.00 34 999.6
20260504171720 78 11 0.9 0.9 0.00 0.00 0.00 32 999.4
20260504171217 78 0 0.9 1.7 0.00 0.00 0.00 33 999.6
20260504170714 77 341 0.9 0.9 0.00 0.00 0.00 33 999.6
20260504170212 76 359 0.0 0.9 0.00 0.00 0.00 35 999.6
20260504160130 71 351 0.0 0.9 0.00 0.00 0.00 43 999.8
20260504151057 67 83 0.0 0.9 0.00 0.00 0.00 50 999.5
20260504150555 67 70 0.0 0.0 0.00 0.00 0.00 48 1000.0
20260504141020 62 13 0.0 0.0 0.00 0.00 0.00 52 1000.1
20260504140517 62 12 0.0 0.0 0.00 0.00 0.00 54 1000.3
20260504130441 0 0.0 0.0 0.00 0.00 0.00 999.7
20260504110328 48 69 0.0 0.0 0.00 0.00 0.00 81 999.9
20260504100246 49 69 0.0 0.0 0.00 0.00 0.00 76 1000.2
20260504081639 55 101 0.0 0.0 0.00 0.00 0.00 57 1001.4
20260504081135 55 111 2.6 2.6 0.00 0.00 0.00 56 1001.6
20260504080632 54 95 0.0 0.0 0.00 0.00 0.00 58 1001.5
20260504080128 54 95 0.0 0.0 0.00 0.00 0.00 60 1002.0
20260504050445 53 95 0.0 0.0 0.00 0.00 0.00 71 1004.3
20260504045942 53 95 0.0 0.0 0.00 0.00 0.00 70 1004.3
20260504045437 53 95 0.0 0.0 0.00 0.00 0.00 69 1004.3
20260504044934 54 95 0.0 0.0 0.00 0.00 0.00 69 1004.3
20260504044431 54 95 0.0 0.0 0.00 0.00 0.00 68 1004.4
20260504043929 54 95 0.0 0.0 0.00 0.00 0.00 66 1004.4
20260504043425 55 95 0.0 0.0 0.00 0.00 0.00 66 1004.4
20260504042917 54 95 0.0 0.0 0.00 0.00 0.00 64 1004.6
20260504042414 55 95 0.0 0.0 0.00 0.00 0.00 64 1004.4
20260504041910 55 95 0.0 0.0 0.00 0.00 0.00 66 1004.5
20260504041406 55 95 0.0 0.0 0.00 0.00 0.00 64 1004.4
20260504040903 56 95 0.0 0.0 0.00 0.00 0.00 66 1004.6
20260504040400 56 96 0.0 0.0 0.00 0.00 0.00 60 1004.7
20260504035856 56 95 0.0 0.0 0.00 0.00 0.00 63 1004.8
20260504035354 56 95 0.0 0.0 0.00 0.00 0.00 63 1004.8
20260504034850 56 95 0.0 0.0 0.00 0.00 0.00 63 1004.8
20260504034348 56 95 0.0 0.0 0.00 0.00 0.00 64 1004.7
20260504033844 57 95 0.0 0.0 0.00 0.00 0.00 62 1004.8
20260504033343 57 95 0.0 0.0 0.00 0.00 0.00 61 1004.8
20260504032839 57 95 0.0 0.0 0.00 0.00 0.00 60 1004.9
20260504032336 57 95 0.0 0.0 0.00 0.00 0.00 60 1004.9
20260504031833 58 95 0.0 0.0 0.00 0.00 0.00 60 1004.9
20260504031330 57 95 0.0 0.0 0.00 0.00 0.00 60 1005.2
20260504030826 58 95 0.0 0.0 0.00 0.00 0.00 60 1005.2
20260504030324 57 95 0.0 0.0 0.00 0.00 0.00 57 1004.9
20260504025820 57 95 0.0 0.0 0.00 0.00 0.00 59 1005.3
20260504025317 58 95 0.0 0.0 0.00 0.00 0.00 63 1005.3
20260504024814 58 95 0.0 0.0 0.00 0.00 0.00 59 1005.2
20260504024310 59 95 0.0 0.0 0.00 0.00 0.00 58 1005.4
20260504023807 59 95 0.0 0.0 0.00 0.00 0.00 57 1005.2
20260504023303 59 95 0.0 0.0 0.00 0.00 0.00 57 1005.4
20260504022759 59 95 0.0 0.0 0.00 0.00 0.00 55 1005.3
20260504022256 60 95 0.0 0.0 0.00 0.00 0.00 56 1005.5
20260504021753 60 95 0.0 0.0 0.00 0.00 0.00 53 1005.2
20260504021250 60 95 0.0 0.0 0.00 0.00 0.00 53 1005.5
20260504020747 60 95 0.0 0.0 0.00 0.00 0.00 53 1005.5
20260504020243 61 95 0.0 0.0 0.00 0.00 0.00 53 1005.5
20260504015739 61 95 0.0 0.0 0.00 0.00 0.00 50 1005.5
20260504015236 62 95 0.0 0.0 0.00 0.00 0.00 51 1005.7
20260504014732 62 95 0.0 0.0 0.00 0.00 0.00 51 1005.5
20260504014229 63 95 0.0 0.0 0.00 0.00 0.00 50 1005.6
20260504013727 64 95 0.0 0.0 0.00 0.00 0.00 49 1005.4
20260504013224 64 95 0.0 0.0 0.00 0.00 0.00 47 1005.5
20260504012720 65 95 0.0 0.0 0.00 0.00 0.00 44 1005.5
20260504012219 66 95 0.0 0.0 0.00 0.00 0.00 43 1005.5
20260504011715 67 95 0.0 0.0 0.00 0.00 0.00 42 1005.6
20260504011212 67 95 0.0 0.0 0.00 0.00 0.00 42 1005.6
20260504010708 68 95 0.0 0.0 0.00 0.00 0.00 40 1005.6
20260504010203 69 95 0.0 0.0 0.00 0.00 0.00 40 1005.5
20260504005700 69 95 0.0 0.0 0.00 0.00 0.00 38 1005.6
20260504005157 69 95 0.0 0.0 0.00 0.00 0.00 37 1006.0
20260504004655 70 96 0.0 0.0 0.00 0.00 0.00 38 1005.7
20260504004152 70 97 0.0 0.0 0.00 0.00 0.00 37 1005.8
20260504003648 70 96 0.0 0.0 0.00 0.00 0.00 37 1006.0
20260504003145 70 96 0.0 0.0 0.00 0.00 0.00 38 1006.0
20260504002642 70 102 0.0 0.0 0.00 0.00 0.00 39 1006.1
20260504002139 71 96 0.0 0.0 0.00 0.00 0.00 39 1006.0
20260504001637 71 96 0.0 0.0 0.00 0.00 0.00 37 1006.0
20260504001133 71 100 0.0 0.0 0.00 0.00 0.00 37 1006.1
20260504000630 72 95 0.0 0.0 0.00 0.00 0.00 38 1006.1
20260504000128 72 95 0.0 0.0 0.00 0.00 0.00 38 1006.5
20260503235626 72 98 0.9 0.9 0.00 0.00 0.00 36 1006.2
20260503235122 73 29 0.0 0.9 0.00 0.00 0.00 36 1006.4
20260503234620 73 26 0.0 0.0 0.00 0.00 0.00 33 1006.2
20260503234118 73 33 0.0 0.0 0.00 0.00 0.00 34 1006.2
20260503233615 73 24 0.0 0.9 0.00 0.00 0.00 34 1006.4
20260503233110 73 11 0.0 0.0 0.00 0.00 0.00 36 1006.3
20260503232608 73 15 0.0 0.0 0.00 0.00 0.00 34 1006.4
20260503232105 73 11 0.0 0.0 0.00 0.00 0.00 33 1006.4
20260503231603 73 26 0.0 0.0 0.00 0.00 0.00 36 1006.3
20260503231059 73 26 0.0 0.0 0.00 0.00 0.00 35 1006.5
20260503230556 73 24 0.0 0.0 0.00 0.00 0.00 36 1006.5
20260503230053 73 20 0.0 0.0 0.00 0.00 0.00 33 1006.7
20260503225550 73 5 0.0 0.0 0.00 0.00 0.00 31 1006.4
20260503225045 73 96 0.0 0.0 0.00 0.00 0.00 36 1006.6
20260503224543 74 96 0.0 0.0 0.00 0.00 0.00 33 1006.4
20260503224040 73 96 0.0 0.0 0.00 0.00 0.00 31 1006.4
20260503223533 73 96 0.0 0.0 0.00 0.00 0.00 35 1006.5
20260503223028 74 96 0.0 0.0 0.00 0.00 0.00 32 1006.5
20260503222526 75 26 0.0 0.9 0.00 0.00 0.00 30 1006.5